Satellite: NOAA-17
Catalog number: 27453
Epoch time:      05068.77038753
Element set:    0293
Inclination:      098.6683 deg
RA of node:       143.7608 deg
Eccentricity:    0.0011411
Arg of perigee:   348.4581 deg
Mean anomaly:     011.6336 deg
Mean motion:   14.23637710 rev/day
Decay rate:      -1.65e-06 rev/day^2
Epoch rev:           14069
Checksum:              309

/EX
SB KEPS @ AMSAT  $ORB05069.M
Orbital Elements  05069.MISC

HR AMSAT ORBITAL ELEMENTS FOR MANNED AND MISCELLANEOUS SATELLITES
FROM WA5QGD FORT WORTH,TX March 10, 2005
SEND SUBSCRIBE/UNSUBSCRIBE TO majordomo@amsat.org ONLY
BID: ORB05069.M
TO ALL RADIO AMATEURS BT

Satellite: HUBBLE
Catalog number: 20580
Epoch time:      05068.69936095
Element set:    0315
Inclination:      028.4663 deg
RA of node:       196.9740 deg
Eccentricity:    0.0003591
Arg of perigee:   293.3312 deg
Mean anomaly:     066.6900 deg
Mean motion:   14.99618691 rev/day
Decay rate:       8.87e-06 rev/day^2
Epoch rev:           61529
Checksum:              332

Satellite: UARS
Catalog number: 21701
Epoch time:      05068.61526883
Element set:    0395
Inclination:      056.9819 deg
RA of node:       233.6674 deg
Eccentricity:    0.0007269
Arg of perigee:   125.0276 deg
Mean anomaly:     235.2005 deg
Mean motion:   15.03777130 rev/day
Decay rate:      1.095e-05 rev/day^2
Epoch rev:           73851
Checksum:              300

Satellite: PO-34
Catalog number: 25520
Epoch time:      05068.85229086
Element set:    0144
Inclination:      028.4588 deg
RA of node:       256.3347 deg
Eccentricity:    0.0005299
Arg of perigee:   220.5772 deg
Mean anomaly:     139.4426 deg
Mean motion:   15.16143955 rev/day
Decay rate:      1.364e-05 rev/day^2
Epoch rev:           35149
Checksum:              318

Satellite: ISS
Catalog number: 25544
Epoch time:      05068.85335095
Element set:    0980
Inclination:      051.6468 deg
RA of node:       049.0602 deg
Eccentricity:    0.0004190
Arg of perigee:   169.9523 deg
Mean anomaly:     268.7323 deg
Mean motion:   15.70623798 rev/day
Decay rate:     1.8656e-04 rev/day^2
Epoch rev:           36006
Checksum:              321

Satellite: OO-38
Catalog number: 26063
Epoch time:      05068.61011955
Element set:    0302
Inclination:      100.2273 deg
RA of node:       270.3606 deg
Eccentricity:    0.0036931
Arg of perigee:   336.0671 deg
Mean anomaly:     023.8797 deg
Mean motion:   14.35705275 rev/day
Decay rate:        2.1e-07 rev/day^2
Epoch rev:           26801
Checksum:              273

Satellite: NO-45
Catalog number: 26932
Epoch time:      05068.58574311
Element set:    0981
Inclination:      067.0583 deg
RA of node:       123.9682 deg
Eccentricity:    0.0009020
Arg of perigee:   264.4485 deg
Mean anomaly:     095.5598 deg
Mean motion:   14.29474239 rev/day
Decay rate:       1.75e-06 rev/day^2
Epoch rev:           17956
Checksum:              343

/EX



----
Via the keps mailing list at AMSAT.ORG courtesy of AMSAT-NA.
To unsubscribe, send "unsubscribe keps" to Majordomo@amsat.org

--- ViaMAIL!/WC v1.60d
 * Origin: Chowdanet (401-331-0615) telnet://chowdanet.com  (1:323/120)